Columbus, OH

9:09 AM EDT on August 30, 2016 (GMT -0400)
Rickenbacker International

Weather History for KLCK - February, 2014

Change the Weather History Date:

Wednesday, February 26, 2014

  Actual Average Record
Temperature  
Mean Temperature 21 °F -  
Max Temperature 26 °F 43 °F 60 °F (1998)
Min Temperature 16 °F 27 °F 10 °F (2015)
Degree Days  
Heating Degree Days 44    
Moisture  
Dew Point 4 °F    
Average Humidity 50    
Maximum Humidity 67    
Minimum Humidity 33    
Precipitation  
Precipitation 0.00 in - - ()
Sea Level Pressure  
Sea Level Pressure 30.01 in    
Wind  
Wind Speed 12 mph (West)    
Max Wind Speed 17 mph    
Max Gust Speed 24 mph    
Visibility 10 miles    
Events Snow    
Averages and records for this station are not official NWS values.
T = Trace of Precipitation, MM = Missing Value Source: NWS Daily Summary

Daily Weather History Graph

Daily Weather History Graph

Search for Another Location

Airport or City:

Trip Planner

Search our weather history database for the weather conditions in past years. The results will help you decide how hot, cold, wet, or windy it might be!

Date:

Astronomy

Feb. 26, 2014 Rise Set
Actual Time 7:09 AM EST 6:20 PM EST
Civil Twilight 6:42 AM EST 6:47 PM EST
Nautical Twilight 6:10 AM EST 7:18 PM EST
Astronomical Twilight 5:39 AM EST 7:50 PM EST
Moon 4:54 AM EST (2/26) 3:34 PM EST (2/26)
Length of Visible Light 12h 05m
Length of Day
11h 11m
Waning Crescent, 10% of the Moon is Illuminated
Feb 26
Waning Crescent
Mar 1
New
Mar 8
First Quarter
Mar 16
Full
Mar 23
Last Quarter

Hourly Weather History & Observations

Time (EST) Temp. Windchill Dew Point Humidity Pressure Visibility Wind Dir Wind Speed Gust Speed Precip Events Conditions
12:15 AM 26.6 °F 16.2 °F 13.6 °F 58% 30.03 in 10.0 mi West 11.5 mph - N/A   Overcast
12:35 AM 26.6 °F 16.2 °F 13.6 °F 58% 30.03 in 10.0 mi WNW 11.5 mph - N/A Snow Light Snow
12:55 AM 26.2 °F 13.4 °F 13.3 °F 58% 30.03 in 10.0 mi WNW 17.3 mph 21.9 mph N/A Snow Light Snow
1:15 AM 25.9 °F 13.8 °F 13.8 °F 60% 30.03 in 7.0 mi West 15.0 mph - N/A Snow Light Snow
1:35 AM 25.5 °F 13.8 °F 14.2 °F 62% 30.03 in 10.0 mi West 13.8 mph 23.0 mph N/A   Overcast
1:55 AM 25.7 °F 14.6 °F 12.6 °F 58% 30.02 in 10.0 mi West 12.7 mph 19.6 mph N/A   Overcast
2:15 AM 25.2 °F 13.3 °F 14.0 °F 63% 30.03 in 1.8 mi WNW 13.8 mph 18.4 mph N/A Snow Light Snow
2:35 AM 24.4 °F 11.0 °F 13.8 °F 64% 30.03 in 10.0 mi NW 17.3 mph 20.7 mph N/A   Overcast
2:55 AM 23.7 °F 10.1 °F 10.9 °F 58% 30.03 in 10.0 mi NW 17.3 mph 23.0 mph N/A   Overcast
3:15 AM 23.2 °F 10.8 °F 9.5 °F 56% 30.02 in 10.0 mi NW 13.8 mph 24.2 mph N/A   Overcast
3:35 AM 23.0 °F 9.6 °F 9.1 °F 55% 30.03 in 10.0 mi NW 16.1 mph - N/A   Overcast
3:55 AM 22.1 °F 11.3 °F 9.5 °F 58% 30.03 in 10.0 mi WNW 10.4 mph 19.6 mph N/A   Mostly Cloudy
4:15 AM 21.4 °F 7.5 °F 8.6 °F 58% 30.04 in 10.0 mi NW 16.1 mph 20.7 mph N/A   Scattered Clouds
4:35 AM 20.8 °F 9.0 °F 7.5 °F 56% 30.05 in 10.0 mi NW 11.5 mph - N/A   Clear
4:55 AM 20.3 °F 5.7 °F 6.4 °F 55% 30.06 in 10.0 mi WNW 17.3 mph 21.9 mph N/A   Scattered Clouds
5:15 AM 19.6 °F 6.2 °F 6.1 °F 56% 30.06 in 10.0 mi WNW 13.8 mph - N/A Snow Light Snow
5:35 AM 18.9 °F 4.8 °F 6.8 °F 59% 30.06 in 10.0 mi WNW 15.0 mph - N/A   Mostly Cloudy
5:55 AM 18.3 °F 5.9 °F 5.0 °F 56% 30.08 in 10.0 mi WNW 11.5 mph - N/A   Mostly Cloudy
6:15 AM 17.8 °F 2.9 °F 5.4 °F 58% 30.08 in 10.0 mi WNW 16.1 mph - N/A   Mostly Cloudy
6:35 AM 17.4 °F 4.1 °F 6.4 °F 62% 30.09 in 10.0 mi WNW 12.7 mph 17.3 mph N/A   Mostly Cloudy
6:55 AM 17.4 °F 4.7 °F 8.2 °F 67% 30.10 in 2.5 mi NW 11.5 mph - N/A Snow Light Snow
7:15 AM 17.2 °F 6.0 °F 7.3 °F 65% 30.11 in 7.0 mi NW 9.2 mph - N/A Snow Light Snow
7:35 AM 16.7 °F 2.6 °F 5.7 °F 62% 30.11 in 10.0 mi NW 13.8 mph - N/A   Overcast
7:55 AM 16.3 °F 3.4 °F 5.2 °F 62% 30.13 in 5.0 mi NW 11.5 mph 18.4 mph N/A Snow Light Snow
8:15 AM 16.2 °F 3.9 °F 4.5 °F 60% 30.13 in 10.0 mi WNW 10.4 mph - N/A   Mostly Cloudy
8:35 AM 16.2 °F 2.5 °F 3.0 °F 56% 30.14 in 10.0 mi NW 12.7 mph - N/A   Mostly Cloudy
8:55 AM 16.9 °F 3.4 °F 2.8 °F 54% 30.15 in 10.0 mi WNW 12.7 mph - N/A   Scattered Clouds
9:15 AM 17.6 °F 5.7 °F 2.5 °F 52% 30.16 in 10.0 mi NW 10.4 mph - N/A   Scattered Clouds
9:35 AM 18.1 °F 6.3 °F 2.1 °F 50% 30.16 in 10.0 mi NW 10.4 mph - N/A   Scattered Clouds
9:55 AM 18.1 °F 6.3 °F 3.2 °F 52% 30.16 in 10.0 mi WNW 10.4 mph - N/A   Scattered Clouds
10:15 AM 18.3 °F 5.9 °F 2.3 °F 50% 30.15 in 10.0 mi WNW 11.5 mph - N/A   Mostly Cloudy
10:40 AM 18.9 °F 8.0 °F 0.9 °F 46% 30.14 in 10.0 mi NW 9.2 mph - N/A   Mostly Cloudy
10:55 AM 19.4 °F 8.6 °F -0.4 °F 42% 30.13 in 10.0 mi West 9.2 mph - N/A   Mostly Cloudy
11:15 AM 19.4 °F 9.5 °F -0.8 °F 41% 30.12 in 10.0 mi West 8.1 mph - N/A   Mostly Cloudy
11:35 AM 19.2 °F 9.3 °F -1.7 °F 40% 30.11 in 10.0 mi WNW 8.1 mph 11.5 mph N/A   Mostly Cloudy
11:55 AM 20.5 °F 9.2 °F -2.7 °F 36% 30.11 in 10.0 mi West 10.4 mph - N/A   Scattered Clouds
12:15 PM 21.6 °F 9.9 °F -2.0 °F 36% 30.11 in 10.0 mi WNW 11.5 mph - N/A   Mostly Cloudy
12:35 PM 21.0 °F 10.6 °F -2.2 °F 36% 30.09 in 10.0 mi NW 9.2 mph 19.6 mph N/A   Mostly Cloudy
12:55 PM 22.1 °F 15.9 °F -2.2 °F 35% 30.08 in 10.0 mi West 4.6 mph 10.4 mph N/A   Scattered Clouds
1:15 PM 22.3 °F 10.8 °F -2.0 °F 35% 30.06 in 10.0 mi NW 11.5 mph - N/A   Scattered Clouds
1:35 PM 21.0 °F 10.6 °F -2.0 °F 36% 30.04 in 10.0 mi West 9.2 mph - N/A   Scattered Clouds
1:55 PM 22.8 °F 13.6 °F -2.2 °F 34% 30.03 in 10.0 mi WSW 8.1 mph - N/A   Scattered Clouds
2:15 PM 22.6 °F 13.4 °F -2.4 °F 34% 30.02 in 10.0 mi West 8.1 mph - N/A   Scattered Clouds
2:35 PM 23.0 °F 13.1 °F -1.7 °F 34% 30.01 in 10.0 mi West 9.2 mph - N/A   Scattered Clouds
2:55 PM 22.5 °F 10.5 °F -0.9 °F 36% 30.01 in 10.0 mi WNW 12.7 mph 17.3 mph N/A   Scattered Clouds
3:15 PM 23.2 °F 15.0 °F -0.8 °F 35% 29.99 in 10.0 mi West 6.9 mph - N/A   Scattered Clouds
3:35 PM 24.1 °F 12.5 °F -0.6 °F 34% 29.99 in 10.0 mi West 12.7 mph - N/A   Mostly Cloudy
3:55 PM 24.6 °F 15.1 °F -0.9 °F 33% 29.98 in 10.0 mi WNW 9.2 mph 16.1 mph N/A   Mostly Cloudy
4:15 PM 24.3 °F 15.4 °F -1.1 °F 33% 29.97 in 10.0 mi WNW 8.1 mph 11.5 mph N/A   Scattered Clouds
4:35 PM 24.4 °F 12.4 °F -0.9 °F 33% 29.96 in 10.0 mi WSW 13.8 mph - N/A   Mostly Cloudy
4:55 PM 24.1 °F 16.0 °F -0.4 °F 35% 29.95 in 10.0 mi WSW 6.9 mph - N/A   Scattered Clouds
5:15 PM 23.7 °F 12.6 °F 0.1 °F 36% 29.93 in 10.0 mi WSW 11.5 mph - N/A   Scattered Clouds
5:35 PM 23.7 °F 12.6 °F 0.9 °F 37% 29.92 in 10.0 mi SW 11.5 mph - N/A   Scattered Clouds
5:55 PM 23.2 °F 12.0 °F 0.9 °F 38% 29.92 in 10.0 mi WSW 11.5 mph - N/A   Clear
6:15 PM 22.5 °F 12.4 °F 1.4 °F 40% 29.91 in 10.0 mi WSW 9.2 mph - N/A   Clear
6:35 PM 21.9 °F 11.0 °F 2.3 °F 43% 29.91 in 10.0 mi WSW 10.4 mph - N/A   Clear
6:55 PM 21.6 °F 12.1 °F 2.8 °F 44% 29.91 in 10.0 mi WSW 8.1 mph - N/A   Clear
7:15 PM 21.0 °F 9.9 °F 3.7 °F 47% 29.90 in 10.0 mi WSW 10.4 mph - N/A   Clear
7:35 PM 21.2 °F 10.9 °F 3.7 °F 47% 29.89 in 10.0 mi WSW 9.2 mph - N/A   Clear
7:55 PM 21.0 °F 9.9 °F 3.4 °F 47% 29.88 in 10.0 mi WSW 10.4 mph - N/A   Clear
8:15 PM 20.3 °F 12.5 °F 4.1 °F 50% 29.87 in 10.0 mi SW 5.8 mph - N/A   Clear
8:35 PM 19.2 °F 12.5 °F 5.4 °F 55% 29.86 in 10.0 mi SW 4.6 mph - N/A   Clear
8:55 PM 18.5 °F 9.3 °F 5.9 °F 58% 29.86 in 10.0 mi SW 6.9 mph - N/A   Clear
9:15 PM 18.1 °F 7.9 °F 6.1 °F 59% 29.85 in 10.0 mi SSW 8.1 mph - N/A   Clear
9:35 PM 18.1 °F 7.1 °F 6.6 °F 61% 29.85 in 10.0 mi SW 9.2 mph - N/A   Clear
9:55 PM 18.9 °F 8.0 °F 6.4 °F 58% 29.85 in 10.0 mi SW 9.2 mph - N/A   Clear
10:15 PM 19.2 °F 7.7 °F 5.9 °F 56% 29.85 in 10.0 mi WSW 10.4 mph - N/A   Clear
10:35 PM 18.7 °F 7.8 °F 5.9 °F 58% 29.84 in 10.0 mi SW 9.2 mph - N/A   Clear
10:55 PM 18.1 °F 8.9 °F 6.1 °F 59% 29.84 in 10.0 mi SW 6.9 mph - N/A   Clear
11:15 PM 18.0 °F 8.7 °F 5.9 °F 59% 29.83 in 10.0 mi SW 6.9 mph - N/A   Clear
11:35 PM 17.6 °F 6.4 °F 6.1 °F 61% 29.82 in 10.0 mi SSW 9.2 mph - N/A   Clear
11:55 PM 17.8 °F 6.6 °F 5.9 °F 60% 29.82 in 10.0 mi SW 9.2 mph - N/A   Clear